Regional Weather Roundup
Issued by NWS Sioux Falls, SD

Home | Current Version | Previous Version | Graphics & Text | Print | Product List | Glossary On
Versions: 1 2 3 4 5 6 7 8 9 10 11 12 13 14 15 16 17 18 19 20 21 22 23 24 25 26 27 28 29 30 31 32 33 34 35 36 37 38 39 40 41 42 43 44 45 46 47 48 49 50
256
ASUS43 KFSD 160510
RWRFSD

WEATHER ROUNDUP FOR SE SOUTH DAKOTA/SW MINNESOTA/NW IOWA
NATIONAL WEATHER SERVICE SIOUX FALLS SD
1100 PM CST FRI DEC 15 2017

NOTE: "FAIR" INDICATES FEW OR NO CLOUDS BELOW 12,000 FEET WITH NO
SIGNIFICANT WEATHER AND OR OBSTRUCTIONS TO VISIBILITY.


SDZ038>040-050-052>070-160600-
SOUTHEAST SOUTH DAKOTA

CITY           SKY/WX    TMP DP  RH WIND       PRES   REMARKS
BROOKINGS      PTCLDY    35  27  72 SW9       29.59S WCI  28
CHAMBERLAIN    CLOUDY    43  29  56 W10       29.64S
HURON          CLOUDY    35  28  75 W6        29.59F
MADISON        FAIR      36  30  80 SW13G18   29.60S
MITCHELL       CLOUDY    41  29  62 W12       29.63R
SIOUX FALLS    MOCLDY    38  28  67 VRB3      29.63R
WINNER         FAIR      45  24  43 W9        29.66R
YANKTON        PTCLDY    39  26  59 SW7       29.65R
$$

MNZ071-072-080-081-089-090-097-098-160600-
SOUTHWEST MINNESOTA

CITY           SKY/WX    TMP DP  RH WIND       PRES   REMARKS
FAIRMONT       CLOUDY    35  26  69 S8        29.65F WCI  29
JACKSON        CLOUDY    36  27  69 SW8       29.64F
LUVERNE        CLOUDY    30  25  80 CALM      29.64S
MARSHALL       CLOUDY    38  28  67 SW13      29.58F
MONTEVIDEO     CLOUDY    34  28  80 S3        29.59F
PIPESTONE      CLOUDY    34  27  75 SW7       29.60S WCI  28
REDWOOD FALLS  CLOUDY    34  30  85 SE6       29.61F WCI  29
TRACY          CLOUDY    37  30  75 SW13      29.59F
WINDOM           N/A     37  21  52 S6        29.63S
WORTHINGTON    CLOUDY    37  27  67 SW13      29.63F
$$

IAZ001>003-012>014-020>022-031-032-NEZ013-014-SDZ071-160600-
NORTHWEST IOWA

CITY           SKY/WX    TMP DP  RH WIND       PRES   REMARKS
CHEROKEE       PTCLDY    32  25  76 S5        29.67F WCI  27
DENISON        PTCLDY    36  25  64 SW7       29.72F
ESTHERVILLE    CLOUDY    37  27  67 SW12      29.64F
LE MARS        CLOUDY    34  27  75 S7        29.65F WCI  28
ORANGE CITY    CLOUDY    34  28  80 SW6       29.65S WCI  29
SHELDON        CLOUDY    36  28  75 SW10      29.63S
SIOUX CITY     PTCLDY    34  24  67 S5        29.67F WCI  30
SPENCER        CLOUDY    39  27  62 SW10      29.65F
STORM LAKE     CLOUDY    34  25  69 S8        29.66F WCI  27
$$

ABBREVIATIONS USED IN REMARKS
   TC - TEMPERATURE IN CELSIUS
  WCI - WIND CHILL INDEX
   HX - HEAT INDEX
  VSB - VISIBILITY





USA.gov is the U.S. government's official web portal to all federal, state and local government web resources and services.